Flag for Brazil Weather past 2 weeks in Campinas, São Paulo, Brazil

Now
79 °F

Passing clouds.


Feels Like: 81 °F
Forecast: 69 / 83 °F
Wind: 15 mph from Northeast

Location: Campinas Aeroporto

Current Time: Dec 21, 2014 at 4:46:19 PM

Latest Report: Dec 21, 2014 at 4:00 PM


Visibility: N/A

Pressure: 29.86 "Hg

Humidity: 70%

Dew point: 68 °F

Location of CampinasLocation

Historic Weather in Campinas — Graph

°F

Campinas temperature yesterday

Maximum temperature yesterday: 84 °F (at 4:00 PM)
Minimum temperature yesterday: 68 °F (at 4:00 AM)
Average temperature yesterday: 76 °F

Past Weeks' High & Low Weather Summary

 TemperatureHumidityPressure
High91 °F (Dec 7, 7:00 PM)100% (Dec 14, 4:00 AM)30.12 "Hg (Dec 14, 4:00 AM)
Low61 °F (Dec 15, 6:00 AM)26% (Dec 7, 6:00 PM)29.80 "Hg (Dec 18, 6:00 PM)
Average75 °F69%29.96 "Hg
* Reported Dec 6 3:00 PM — Dec 21 3:00 PM, Campinas, Weather by CustomWeather, © 2014

Note: Actual official high and low records may vary slightly from our data, if they occured in-between our weather recording intervals... More about our weather records

Advertising

Campinas weather history for previous 24 hours

 ConditionsComfort  
Time TempWeatherWind HumidityBarometerVisibility
3:00 PM
Dec 21
84 °FScattered showers. Scattered clouds.16 mph55%29.89 "HgN/A
2:00 PM86 °FScattered showers. Partly sunny.13 mph52%29.92 "HgN/A
1:00 PM82 °FScattered clouds.15 mph58%29.95 "HgN/A
12:00 PM81 °FPartly sunny.15 mph62%29.98 "HgN/A
11:00 AM79 °FPartly sunny.17 mph65%29.98 "HgN/A
10:00 AM79 °FScattered clouds.16 mph65%29.98 "HgN/A
9:00 AM77 °FPassing clouds.10 mph69%29.98 "HgN/A
8:00 AM75 °FScattered clouds.7 mph78%29.95 "HgN/A
7:00 AM73 °FSunny.7 mph83%29.89 "Hg10 mi
6:00 AM72 °FClear.7 mph88%29.89 "Hg10 mi
5:00 AM73 °FClear.7 mph83%29.89 "Hg10 mi
4:00 AM73 °FClear.7 mph83%29.89 "Hg10 mi
3:00 AM73 °FClear.5 mph83%29.92 "Hg10 mi
2:00 AM75 °FClear.5 mph78%29.92 "Hg10 mi
1:00 AM75 °FClear.8 mph74%29.92 "Hg10 mi
12:00 AM75 °FClear.8 mph74%29.92 "Hg10 mi
11:00 PM
Dec 20
77 °FClear.8 mph69%29.92 "Hg10 mi
10:00 PM79 °FClear.12 mph65%29.89 "Hg10 mi
9:00 PM81 °FClear.7 mph62%29.86 "Hg10 mi
8:00 PM82 °FPassing clouds.8 mph58%29.86 "HgN/A
7:00 PM84 °FPassing clouds.8 mph51%29.86 "HgN/A
6:00 PM84 °FScattered clouds.9 mph55%29.83 "HgN/A
5:00 PM84 °FPartly sunny.10 mph55%29.86 "HgN/A
4:00 PM84 °FPartly sunny.10 mph58%29.89 "HgN/A
Weather by CustomWeather, © 2014

See weather overviewHow to use our weather pages